Location: Gro�sch�nbrunn
(49.5760°N, 11.8868°E)
Time: 15:03:57
(UTC+00:00)

ISS - Pass Details

Date: 25 November 2020
Orbit: 418 x 419 km, 51.6° (Epoch: 17 January)

Event Time Altitude Azimuth Distance (km) Brightness Sun altitude
Rises 16:10:31 0° 227° (SW) 2,356 1.6 -8.2°
Reaches altitude 10° 16:12:41 10° 220° (SW) 1,495 0.2 -8.5°
Maximum altitude 16:15:51 40° 149° (SSE) 637 -2.9 -9.0°
Enters shadow 16:18:34 13° 82° (E) 1,329 -1.9 -9.4°
